Theta_e
304 305 305 305 306 307 308 309 310 312 314 316 317 319 321 324 327 329 330 330 329 329 330 329 328 328 329 329 329 330 330 330 329 330 330 330 330 329 329 329 327 323 321 321 324 326 326 327 327 327 326 325 323 322 320 319 319 319 320 319 318 318 318 316 315 315 315 315 315 315 315 314 314 315
304 304 304 305 305 306 307 307 308 309 311 313 314 316 317 320 324 326 328 330 330 329 329 328 327 327 328 328 329 329 329 330 330 329 329 330 331 330 329 329 328 327 325 323 324 326 326 327 327 326 326 326 324 323 321 319 317 317 319 319 317 317 318 316 314 315 315 315 315 315 314 314 314 315
303 304 304 304 305 306 306 306 307 308 309 311 313 314 316 318 320 322 324 327 329 329 329 329 327 327 327 328 329 329 329 329 330 330 329 329 330 331 330 330 329 328 327 326 326 327 327 327 326 326 326 326 325 324 322 320 317 314 317 319 316 316 318 316 314 314 314 315 316 315 314 314 315 316
302 303 303 304 304 305 305 306 307 308 309 311 312 312 313 314 315 317 319 322 325 328 329 329 327 326 326 327 328 329 329 329 329 330 329 329 330 330 330 330 330 329 328 328 327 327 327 327 326 326 325 325 326 325 323 321 318 314 315 318 317 314 315 316 315 313 313 315 316 315 314 314 315 316
301 302 302 303 303 303 304 305 306 307 308 309 309 309 309 310 310 311 314 316 319 322 325 328 328 327 326 326 327 328 329 329 329 329 330 330 330 329 329 330 330 330 329 329 328 328 328 327 327 326 325 325 325 325 324 322 321 317 313 315 317 314 312 315 316 313 313 315 316 315 314 313 315 316
300 301 301 302 302 302 302 303 304 305 306 306 306 306 307 307 308 308 310 312 314 316 319 322 326 328 327 326 326 327 328 329 329 329 329 330 330 330 329 329 329 330 330 329 329 328 328 328 327 326 326 325 325 325 324 323 322 320 316 314 315 313 311 314 316 314 313 315 316 316 314 313 314 315
299 300 300 300 300 300 301 302 303 304 304 304 304 304 305 305 305 306 306 307 309 311 313 316 320 325 327 327 326 327 327 327 328 329 329 329 330 330 330 329 329 330 330 330 329 329 328 328 327 327 326 325 324 324 324 323 323 322 319 316 314 311 311 314 316 314 312 314 316 316 314 312 314 316
299 299 299 300 299 299 300 301 302 302 302 302 302 302 303 303 303 303 303 304 305 308 310 312 315 319 324 327 327 327 326 327 327 329 329 329 329 329 329 329 330 330 330 330 330 329 329 328 328 327 326 325 324 324 324 323 323 322 321 319 315 312 311 313 314 312 312 314 315 316 314 313 313 315
298 298 299 299 299 299 299 300 300 300 300 300 300 300 300 301 301 301 301 302 303 304 307 309 311 314 319 325 327 327 326 326 327 328 328 328 328 329 329 329 330 330 330 330 331 330 329 328 328 328 327 326 325 324 324 323 323 322 321 320 318 314 312 312 312 312 312 314 315 315 315 313 313 314
298 298 298 298 298 299 299 299 299 299 299 299 299 299 299 299 299 299 300 301 302 303 304 306 309 311 315 320 325 327 327 326 327 327 328 328 328 329 329 329 329 329 328 329 330 330 329 328 328 328 327 327 325 324 324 323 323 322 321 321 320 317 313 311 311 312 313 314 314 315 315 314 313 313
297 297 297 298 298 298 299 299 298 298 298 298 298 298 298 298 298 298 299 300 301 302 303 304 307 310 313 316 321 325 327 327 327 327 328 328 329 329 328 328 328 327 327 328 328 329 329 328 329 329 327 327 326 324 324 323 322 322 321 321 321 319 315 311 310 312 314 314 314 315 314 313 312 311
297 297 297 297 297 298 298 298 297 297 297 297 297 297 297 297 297 297 298 299 300 301 302 304 305 308 311 314 318 322 326 327 327 327 327 328 328 328 329 328 328 328 327 327 326 327 327 327 328 329 328 327 327 325 324 323 323 322 321 321 321 320 317 313 309 309 312 313 313 315 314 313 311 309
296 296 296 296 297 297 297 297 297 297 296 296 296 296 296 296 296 296 297 298 299 300 301 303 304 306 309 312 315 320 324 327 327 326 327 327 327 328 328 328 327 328 327 326 325 325 325 326 325 325 327 327 326 325 324 323 323 322 321 321 321 320 319 316 310 307 310 312 312 313 314 312 310 309
296 296 296 296 296 296 296 296 296 296 295 294 294 294 295 295 295 295 296 297 298 299 301 302 303 305 307 309 312 316 320 323 326 327 327 327 327 327 327 327 326 327 327 326 325 324 324 325 324 323 325 327 326 325 324 324 323 322 321 321 321 320 318 317 313 307 308 310 310 311 313 312 310 309
296 295 295 295 295 295 295 296 295 295 294 293 294 295 295 295 294 295 295 296 297 298 299 300 302 303 305 307 309 312 316 320 323 326 327 327 327 326 326 326 326 326 326 326 325 323 322 323 323 322 323 325 325 324 325 324 323 322 321 320 320 320 318 318 315 309 307 309 310 310 310 310 310 309
295 295 295 295 295 295 295 295 294 294 293 293 293 294 295 296 295 295 295 296 296 297 298 299 300 301 303 304 306 309 313 317 321 324 326 326 327 327 326 326 326 325 325 325 324 324 323 322 322 321 321 323 325 325 325 325 324 323 321 320 320 319 318 317 317 312 307 307 310 310 310 309 309 309
294 294 294 294 294 294 294 294 294 293 293 292 293 293 294 295 296 296 295 295 296 296 297 298 299 300 301 302 304 306 309 313 317 322 325 326 326 326 326 326 326 324 324 325 324 323 322 322 321 321 321 322 325 326 326 325 324 323 322 320 319 319 318 318 317 314 309 307 307 308 309 310 310 309
294 294 294 294 294 294 294 294 293 292 292 292 293 293 294 295 295 295 296 296 296 297 297 298 298 299 300 301 302 304 305 308 312 316 321 324 325 326 326 326 326 324 324 324 324 322 322 321 321 321 321 321 323 325 325 325 324 323 322 320 318 318 318 318 318 316 311 308 307 306 307 310 311 310
294 293 293 294 293 293 294 293 292 292 292 292 293 293 294 294 294 295 295 296 296 296 296 297 297 298 299 300 301 302 303 306 308 312 316 320 323 325 325 325 324 323 323 323 323 323 322 320 320 321 321 321 322 323 324 324 324 323 322 320 318 317 317 317 318 317 312 309 309 307 306 310 311 311
294 293 293 293 293 293 293 293 292 291 291 292 293 293 293 293 294 294 294 294 294 294 294 295 295 296 297 298 299 300 301 302 304 307 310 314 320 324 324 324 324 322 321 321 322 323 322 320 319 320 321 321 321 321 322 323 323 323 322 320 318 317 317 317 318 318 314 310 309 308 308 310 312 311
293 293 293 293 293 293 293 292 292 291 292 292 293 292 293 293 293 293 293 293 293 293 293 294 295 296 297 297 298 298 300 300 300 301 303 307 315 324 325 324 324 322 321 321 321 322 322 320 319 319 320 321 321 320 320 321 322 322 320 319 318 317 317 318 318 318 316 311 309 310 310 311 311 311
293 293 293 293 293 292 292 292 292 291 292 292 292 292 292 292 292 292 292 292 292 293 294 295 296 297 298 299 299 300 301 302 301 299 300 304 313 322 324 324 324 322 320 321 321 322 322 320 319 319 318 318 319 319 319 320 321 321 319 318 318 318 318 318 319 319 316 313 312 311 311 311 311 310
293 293 293 293 292 292 292 292 292 292 292 292 292 292 292 291 291 291 291 291 292 293 294 295 297 299 300 302 303 302 303 305 303 301 302 304 312 321 324 323 323 322 320 320 320 321 321 320 319 317 316 315 315 316 317 318 318 318 318 317 317 318 318 318 318 318 316 313 313 312 310 311 311 309
293 293 293 293 292 292 292 292 292 292 292 292 292 292 291 291 291 291 291 292 292 293 293 295 297 299 301 303 305 304 304 306 307 306 306 306 311 319 324 324 323 323 321 320 320 321 320 319 318 316 316 316 314 312 313 316 316 317 316 316 316 317 317 318 318 317 315 313 313 311 309 311 310 308
293 293 293 293 292 291 291 292 292 292 292 292 292 292 291 291 291 291 291 292 292 292 293 295 297 299 300 302 305 306 308 310 310 311 311 311 311 316 322 324 323 323 322 320 320 320 319 317 316 315 315 314 311 308 309 311 312 314 314 314 316 316 315 315 315 315 314 313 311 309 309 310 309 306
293 293 293 292 291 291 291 292 292 292 292 292 292 292 291 291 291 291 291 291 291 292 292 293 295 297 299 300 302 305 309 312 314 314 315 315 315 316 319 322 323 323 322 320 320 320 318 315 315 314 312 310 308 306 307 307 308 310 310 311 313 313 311 312 312 312 311 310 309 309 309 308 306 304
293 293 292 292 291 291 291 292 292 292 292 292 292 292 292 292 291 291 291 291 291 291 292 292 294 295 297 298 300 302 306 309 312 313 315 316 317 316 318 320 322 323 322 320 319 320 318 315 315 314 312 309 306 305 305 304 305 307 307 307 309 310 309 310 311 309 309 309 307 306 305 304 302 302
292 292 291 291 291 291 291 292 292 292 292 292 292 292 292 292 291 291 291 291 291 291 292 292 293 293 295 297 299 300 302 305 308 311 313 314 315 316 316 318 320 321 322 321 319 318 318 316 315 315 314 310 307 306 304 303 303 305 305 304 305 307 308 309 309 307 306 307 306 303 301 300 300 301
292 291 291 291 291 291 291 292 292 293 292 292 292 292 292 292 291 291 291 291 291 291 291 291 292 292 294 296 298 299 300 303 306 308 310 312 314 314 315 317 318 319 320 320 318 317 317 316 314 313 313 311 309 306 304 302 302 303 303 302 301 303 305 307 306 304 303 304 302 300 300 300 300 301
292 292 291 291 291 291 291 292 292 292 292 292 292 292 292 292 292 291 291 291 291 291 291 291 292 292 293 295 297 298 299 301 303 304 306 308 310 311 312 313 313 314 316 317 316 315 315 314 313 312 311 310 309 307 304 303 301 301 301 300 299 299 301 302 303 302 302 301 300 300 300 300 300 300
292 292 292 292 292 292 292 292 292 292 292 292 292 292 292 292 292 291 291 291 291 291 291 291 292 292 293 294 296 298 298 299 300 302 303 304 306 307 309 308 307 308 310 312 312 313 313 312 312 310 309 307 306 305 303 302 301 299 299 299 299 298 298 299 299 300 301 300 298 298 299 299 299 299
292 293 293 292 292 292 292 292 292 292 292 292 292 292 291 292 292 292 291 291 291 291 291 292 292 292 292 293 295 296 297 298 299 300 301 302 303 304 304 304 303 304 305 306 308 309 310 310 309 308 307 305 303 302 301 301 300 299 298 298 298 297 297 298 297 297 299 299 297 296 297 297 297 298
292 293 293 293 292 292 292 292 292 292 292 292 292 291 291 291 291 291 291 291 291 291 292 292 292 292 292 293 293 294 296 296 297 299 300 301 302 302 302 302 301 301 302 302 303 304 305 305 305 304 303 302 301 301 300 299 298 298 297 297 297 296 296 297 296 296 297 297 296 294 295 295 296 297
292 292 292 292 292 292 292 292 291 292 292 292 291 291 291 291 291 291 291 291 291 292 292 292 292 292 292 292 293 293 294 295 296 297 298 299 300 300 300 300 300 300 300 300 300 301 301 302 302 301 300 300 299 299 299 298 298 297 297 297 296 296 295 296 296 296 296 296 295 294 294 294 295 296
292 292 292 292 292 292 292 291 291 291 291 291 291 291 290 291 290 290 291 291 291 292 292 292 292 292 292 292 292 292 293 294 295 296 296 297 298 298 298 299 299 299 300 300 300 300 300 300 300 299 298 298 298 297 297 298 297 297 296 296 296 296 296 296 296 296 296 296 296 295 293 293 294 294
292 292 292 292 292 292 292 291 291 291 291 291 291 291 291 290 290 290 291 291 291 292 292 292 292 292 292 292 292 292 292 293 293 294 295 295 296 296 296 296 297 298 298 299 299 299 299 299 299 298 297 297 296 295 295 296 297 296 296 296 295 295 296 296 296 295 295 295 294 294 293 293 293 293
291 291 292 292 291 291 291 291 290 291 291 291 291 291 291 291 290 290 291 291 291 292 292 292 292 292 292 292 292 292 292 292 292 293 293 294 294 294 294 295 295 295 295 296 297 298 298 298 298 297 296 295 294 293 292 293 295 295 295 295 294 294 294 294 294 294 294 293 293 293 293 293 293 293
291 291 291 291 291 291 291 290 290 290 291 291 291 291 291 291 290 290 291 291 291 291 292 292 293 293 292 293 293 292 292 292 292 292 292 292 293 293 293 293 293 293 293 294 295 296 296 296 296 296 295 295 294 293 293 292 293 293 293 294 294 293 293 294 293 293 293 293 293 293 293 293 293 293
291 291 291 291 291 291 290 290 290 290 290 290 291 291 291 291 291 290 290 290 290 291 291 292 293 293 293 293 293 293 292 292 292 292 292 292 292 292 292 293 293 293 293 293 293 293 293 293 293 294 294 294 293 293 293 292 292 292 293 294 294 294 294 293 293 292 292 293 293 293 293 293 293 293
290 291 291 291 291 290 290 290 289 289 289 290 290 290 291 291 291 290 290 290 290 290 291 291 293 294 294 293 293 293 293 292 292 292 292 292 292 292 292 292 293 293 292 292 292 292 292 292 292 292 293 293 293 293 293 292 292 292 293 293 294 294 293 293 293 293 292 292 293 293 293 293 293 293
291 291 291 290 290 290 290 289 289 288 288 289 289 289 290 291 291 290 290 290 290 290 290 291 292 293 294 294 293 293 293 292 292 292 292 292 292 292 292 292 292 292 292 292 292 292 292 292 292 293 293 293 293 293 293 292 292 292 292 292 292 293 293 293 293 293 292 292 293 292 292 292 293 293
291 291 291 290 290 290 290 289 288 288 287 287 287 289 289 290 290 290 290 290 290 290 290 290 291 292 293 294 294 294 293 293 292 292 292 292 292 292 292 292 292 292 292 292 291 292 292 292 293 293 293 293 293 293 293 292 291 291 291 292 292 292 293 293 293 293 293 293 293 293 292 292 293 292
291 291 291 290 290 290 289 289 288 287 286 285 286 287 289 289 290 290 290 289 289 290 290 290 290 290 292 293 294 294 294 294 293 293 293 293 292 292 292 292 292 292 292 292 291 292 292 293 293 293 293 293 293 293 292 292 291 291 291 291 292 292 292 293 293 293 293 293 293 293 292 292 292 292
291 291 291 290 290 290 289 288 287 287 286 285 284 285 287 288 289 289 289 289 289 289 290 290 290 290 290 292 293 294 294 294 294 294 294 293 293 293 292 292 292 292 292 292 292 292 292 292 293 293 293 292 292 292 292 292 291 291 291 291 292 292 292 292 292 292 292 292 292 292 291 292 292 292
291 290 290 290 290 289 289 288 287 286 286 286 285 283 284 287 289 289 289 289 290 289 289 290 290 290 290 291 291 292 294 294 294 294 294 294 294 294 293 293 292 292 292 292 292 292 292 292 293 293 292 292 292 292 292 292 291 291 291 291 291 291 291 291 291 291 291 291 291 292 292 292 292 292
Wind_Speed
15 15 16 16 16 16 16 17 17 18 19 19 21 23 23 18 12 9 8 7 11 16 16 18 20 24 26 27 25 24 22 22 26 30 34 36 37 37 36 34 34 34 34 34 33 31 30 33 35 35 34 33 31 30 30 32 33 33 31 30 29 28 26 26 25 24 24 24 24 25 25 25 25 24
15 16 17 17 17 17 18 18 19 18 18 19 20 22 25 24 18 13 10 9 13 16 15 18 21 22 24 26 27 27 25 23 24 24 27 34 39 39 37 36 35 35 35 35 34 33 32 34 37 36 35 35 34 32 30 30 32 34 34 32 30 30 29 28 27 27 26 25 25 26 25 25 26 26
15 17 18 18 18 19 20 20 20 20 19 19 20 22 24 25 23 21 15 9 12 16 15 17 20 21 23 25 26 28 27 24 25 23 21 26 35 39 38 37 36 36 36 36 36 35 35 36 39 39 37 37 36 34 32 30 30 32 34 33 31 32 32 29 28 29 28 28 27 27 26 25 26 27
16 17 18 18 19 20 21 21 20 20 20 20 20 23 24 24 24 25 19 11 13 18 18 20 23 23 24 25 25 26 26 25 26 26 22 23 30 35 38 39 38 37 38 38 37 37 38 38 40 40 38 38 38 36 34 32 30 31 33 34 32 32 33 31 29 29 30 30 29 29 28 28 28 27
17 17 18 19 19 20 20 20 21 20 21 21 22 23 24 25 24 25 22 15 14 19 21 21 24 25 24 25 26 26 26 25 25 26 24 22 25 28 32 38 41 39 38 39 39 39 39 41 42 43 41 39 39 39 38 35 32 31 32 34 34 33 34 33 30 30 32 31 30 30 30 30 30 29
18 18 19 19 20 20 20 20 20 20 21 22 22 22 23 24 24 23 22 19 16 18 21 22 23 24 25 26 26 27 28 26 25 25 23 22 25 26 26 31 39 42 41 40 41 41 41 42 44 45 44 42 40 40 40 38 35 32 32 34 35 34 35 35 32 32 33 32 30 31 31 31 31 30
18 19 19 20 21 21 21 21 20 20 22 22 22 22 22 22 23 23 21 20 18 18 22 23 23 23 24 26 27 28 30 29 28 28 26 25 26 27 25 27 34 41 44 43 42 42 43 43 44 46 47 45 43 42 41 41 38 35 33 33 34 35 36 37 35 33 35 34 32 32 32 31 32 31
19 19 19 20 21 21 21 21 21 21 23 23 22 23 22 21 23 24 23 22 20 19 21 23 23 24 24 25 28 28 28 30 30 31 30 29 28 29 28 28 30 35 42 45 45 44 44 45 45 46 48 48 46 44 43 42 41 38 35 34 33 34 36 39 37 35 36 36 34 33 32 31 33 32
19 19 19 19 20 21 21 22 22 23 24 24 24 23 23 22 22 24 24 23 22 21 21 23 25 27 25 25 27 28 28 29 30 31 32 32 32 32 31 31 30 32 38 43 45 46 46 46 46 47 48 49 48 47 45 44 43 41 38 35 34 34 36 39 39 37 37 36 35 35 33 32 33 33
19 19 19 19 19 20 22 22 22 23 25 25 25 24 24 24 24 25 25 23 23 23 23 24 25 25 24 24 26 29 29 29 29 29 30 32 33 33 33 33 32 31 34 40 45 48 47 47 47 48 49 50 50 48 47 45 44 43 41 38 36 35 36 38 39 38 38 38 36 36 35 34 34 34
19 19 19 19 19 20 22 22 22 24 26 26 25 25 25 26 26 26 25 24 24 23 23 23 23 22 23 23 25 28 30 31 31 29 27 28 32 34 34 34 34 32 33 37 42 46 48 48 49 49 49 51 52 50 49 48 46 44 43 41 38 36 35 38 40 40 40 39 38 37 36 35 34 34
20 20 20 19 19 21 21 21 22 24 26 27 26 26 26 27 28 27 26 25 23 22 22 22 22 22 22 22 23 26 26 26 27 31 30 27 29 33 34 35 36 34 33 34 36 40 46 48 49 51 51 51 53 53 51 49 47 46 45 43 41 38 36 36 39 41 41 41 41 39 37 36 35 34
21 20 20 19 20 21 21 22 24 26 26 26 27 28 28 27 27 27 27 25 23 22 21 21 22 21 21 19 19 22 22 22 25 30 31 30 31 32 33 35 38 37 34 31 32 37 44 48 47 48 51 52 53 54 52 51 49 47 47 45 43 40 38 37 39 41 42 42 42 42 39 36 36 35
21 21 21 20 20 21 21 23 25 25 27 29 31 32 31 29 27 27 27 25 24 23 21 21 21 20 20 20 19 21 23 25 28 29 27 28 31 29 27 29 36 40 37 33 30 32 39 47 47 46 50 53 54 55 54 53 52 50 48 47 45 43 40 38 38 40 42 41 41 42 41 38 36 35
22 22 21 21 21 21 23 25 25 24 28 33 35 35 34 33 30 27 26 26 25 25 23 23 22 21 22 24 23 22 24 27 29 29 28 27 28 25 19 17 23 34 38 34 30 29 32 41 45 45 47 51 53 57 57 54 53 52 49 48 47 45 42 40 38 39 42 42 40 41 41 40 37 36
21 21 22 22 21 22 25 26 25 28 31 32 33 34 34 34 31 28 27 27 27 27 26 26 25 24 24 27 26 23 23 26 28 29 29 28 27 25 21 18 19 28 36 34 31 32 33 37 39 39 42 48 53 57 57 55 54 53 51 49 48 47 44 42 40 39 41 42 42 40 40 39 37 36
21 21 22 23 23 25 26 26 29 33 33 29 29 30 31 31 31 30 30 29 29 29 29 29 29 28 27 28 28 26 25 26 28 27 27 27 28 25 26 27 25 25 33 37 31 28 33 38 38 38 40 46 53 57 57 56 55 54 52 50 49 49 46 43 41 40 40 41 42 41 40 39 36 35
20 21 22 24 25 26 26 28 33 36 34 30 28 27 28 30 31 32 31 29 28 28 28 29 32 32 31 31 33 32 30 30 31 30 27 26 27 29 30 31 27 25 33 40 31 22 27 37 39 41 41 41 46 54 56 56 56 55 54 52 50 49 48 44 42 40 40 40 41 41 41 39 36 34
19 20 22 24 26 27 27 31 37 39 36 32 29 28 29 30 31 32 32 30 29 30 30 31 33 35 35 35 36 35 34 32 32 33 33 32 31 33 31 28 27 28 34 39 31 19 23 34 37 40 42 40 42 49 53 56 58 56 54 53 51 50 48 46 42 40 40 40 40 39 39 37 35 34
20 21 23 25 27 28 29 34 40 41 37 31 29 30 31 31 32 33 33 33 33 34 35 36 38 39 41 42 42 43 41 38 36 36 36 37 35 31 24 21 25 28 30 36 34 21 20 31 35 34 37 39 39 40 46 53 57 57 56 54 52 51 49 46 43 41 39 39 39 38 37 36 34 33
22 23 24 26 29 30 32 37 42 42 37 31 29 31 31 33 35 35 36 37 38 38 38 39 40 42 45 45 46 47 47 45 43 39 36 35 33 26 16 12 18 24 28 36 39 26 19 28 34 32 32 36 37 36 39 48 55 57 57 56 54 52 49 46 45 42 39 38 38 37 37 36 34 32
23 24 25 27 31 34 37 40 42 41 37 32 30 30 32 34 35 37 40 42 42 41 40 38 37 38 41 43 43 44 44 43 42 40 38 37 32 23 16 12 13 20 28 38 40 29 21 26 32 28 24 25 32 36 37 44 52 55 54 54 54 51 48 47 46 42 39 38 37 36 37 36 34 32
24 25 26 28 34 39 40 42 43 41 38 34 31 31 33 34 36 40 43 42 41 42 41 38 36 35 37 37 36 37 37 37 39 41 42 42 35 25 21 18 13 11 19 34 40 30 22 26 30 27 18 10 15 28 33 39 50 54 52 52 51 49 48 47 46 43 39 38 37 36 37 37 35 32
24 26 26 28 35 40 41 42 42 42 41 37 31 30 35 36 39 43 43 39 39 40 38 37 35 34 33 30 26 28 31 31 32 35 39 43 41 31 23 23 20 12 13 31 43 34 23 25 30 31 25 11 7 18 28 35 46 51 50 51 50 48 48 47 45 42 39 37 37 36 36 37 35 33
24 26 27 28 35 40 40 42 42 41 43 39 32 33 38 39 42 44 40 39 40 38 35 35 33 31 31 28 22 21 25 26 25 27 32 40 43 37 28 24 24 20 17 28 42 38 25 26 30 30 25 15 9 15 21 27 39 46 47 50 52 49 49 48 45 42 39 36 35 34 35 36 34 34
24 25 26 28 35 39 39 41 41 40 42 40 36 39 44 44 45 43 40 42 43 39 37 36 32 30 31 29 24 18 14 15 17 19 23 32 37 37 34 29 26 26 24 26 38 42 31 28 32 30 22 13 11 17 19 18 27 37 39 44 49 49 48 47 44 42 40 36 33 33 33 33 33 33
23 24 26 30 34 37 38 40 41 40 41 41 41 45 46 46 46 44 43 47 45 38 37 37 33 32 33 31 26 20 12 6 7 11 14 20 25 27 30 32 30 29 27 25 35 44 38 31 35 36 29 21 15 14 13 12 19 30 35 39 46 47 45 45 45 42 41 38 35 33 33 33 32 31
24 25 28 31 33 35 37 39 40 40 42 43 44 46 46 46 46 45 47 49 45 38 39 40 36 34 34 32 28 22 14 8 2 5 7 11 16 17 21 26 27 27 26 25 32 43 41 35 38 40 37 32 24 16 12 12 19 30 35 36 40 44 44 44 44 43 41 40 38 37 36 34 33 32
28 27 29 32 33 33 36 38 38 38 41 43 44 45 46 46 45 46 49 48 44 40 40 41 39 37 35 32 28 23 17 11 7 5 3 3 8 9 11 13 16 18 21 21 28 40 40 33 34 38 37 36 31 25 21 19 23 32 37 35 35 40 44 46 45 44 43 40 39 39 37 36 36 35
29 29 30 32 32 33 34 35 35 36 41 45 44 44 47 46 44 46 47 45 42 41 40 40 41 41 38 33 28 27 25 20 16 14 12 9 7 5 5 5 4 6 11 15 23 33 33 27 27 31 32 31 31 30 30 29 26 28 34 38 36 34 39 45 46 46 44 41 39 38 37 36 37 36
27 27 28 29 29 31 32 33 34 37 41 43 41 41 44 45 44 45 45 43 42 41 41 42 44 42 38 33 30 30 30 27 23 22 20 18 16 13 11 12 12 11 10 13 19 25 24 21 22 25 25 24 24 27 32 36 33 28 28 36 38 34 38 45 45 44 46 44 40 38 36 35 34 33
25 23 25 27 29 30 32 33 34 35 38 39 39 40 42 44 45 46 46 45 45 44 43 44 45 43 38 36 34 33 32 32 29 25 21 21 21 18 17 17 16 16 16 15 15 16 16 15 18 21 22 22 23 26 27 28 32 32 30 31 33 34 39 45 43 42 47 47 41 37 35 33 32 31
23 22 24 26 29 30 30 32 33 33 33 36 39 41 42 42 44 46 46 44 44 44 44 43 43 42 39 39 39 36 33 34 34 30 25 23 22 22 23 24 22 19 19 20 21 23 22 22 22 22 22 23 23 27 28 24 24 28 31 34 35 34 35 41 43 43 47 47 41 35 32 30 30 30
21 22 23 25 27 27 27 29 30 30 30 31 34 40 42 42 42 44 44 43 42 43 43 42 41 41 40 39 39 37 34 33 33 33 32 28 25 25 26 26 24 23 23 23 24 28 30 32 32 31 31 31 27 24 26 27 26 26 29 35 39 37 34 38 43 42 43 45 43 36 30 28 28 27
21 22 22 22 24 24 25 27 27 28 29 28 30 35 39 41 43 43 43 42 40 40 42 41 41 42 41 38 37 36 34 33 32 33 34 32 30 30 29 27 26 25 25 24 23 25 28 33 36 32 28 29 28 24 21 25 30 32 30 31 37 39 36 36 41 41 40 42 43 38 31 27 26 25
21 22 21 21 22 23 23 25 27 27 28 29 30 31 32 37 43 43 40 40 39 38 39 39 40 40 40 38 37 36 35 35 35 34 32 31 31 30 29 30 30 29 28 26 22 20 21 26 32 29 19 14 14 13 14 17 26 34 36 35 35 38 38 36 38 40 38 36 38 39 35 30 27 27
20 21 21 20 22 23 22 24 26 26 26 29 31 33 34 37 42 44 43 42 41 39 38 38 38 39 39 38 38 39 36 35 37 37 33 31 30 29 27 28 29 30 30 28 25 23 19 19 26 28 18 10 8 7 12 18 22 28 38 42 38 35 38 40 38 35 33 32 32 34 35 33 30 29
19 20 20 21 22 22 23 24 25 25 26 26 28 32 35 37 40 44 46 45 42 39 38 38 37 39 40 38 37 38 37 36 39 40 37 34 32 30 30 30 29 30 32 30 27 27 24 20 21 22 18 12 9 7 11 20 24 24 32 44 44 39 39 41 38 32 30 31 31 30 32 33 32 30
19 19 19 20 21 22 23 24 24 25 26 25 26 28 29 30 34 40 43 44 43 41 41 39 37 37 39 38 37 37 36 35 37 39 37 36 34 31 30 30 29 31 34 34 31 30 29 26 24 23 23 21 18 19 24 29 29 27 30 37 42 41 39 39 38 35 32 33 33 32 32 31 30 30
18 18 19 20 21 21 22 23 24 26 26 25 26 28 28 27 31 36 39 41 43 43 41 40 38 37 37 37 38 39 37 34 35 36 35 35 36 34 32 31 30 31 34 34 33 34 33 30 28 32 36 36 36 41 44 40 34 32 31 29 32 36 37 37 38 38 35 34 36 35 33 32 30 29
17 18 19 20 20 21 22 23 24 26 27 27 27 30 31 31 33 37 39 42 44 43 41 39 38 38 37 36 37 37 34 31 33 34 32 31 32 35 35 33 31 31 30 29 30 31 30 29 31 37 41 40 40 41 36 27 24 29 31 27 27 30 32 34 36 37 35 34 35 33 29 27 26 24
17 17 18 19 20 20 22 23 23 24 27 29 30 30 31 32 35 38 40 42 44 44 42 39 37 35 35 34 35 34 31 29 29 30 28 26 26 30 33 33 31 30 29 28 28 28 27 27 31 34 34 34 36 32 22 17 21 28 31 29 28 28 29 31 34 34 33 34 33 29 24 20 18 16
16 17 18 19 19 20 21 23 23 23 25 29 32 31 29 29 32 35 38 41 43 43 42 40 38 36 34 33 33 33 31 29 27 26 26 26 24 24 26 28 29 30 31 30 30 30 30 28 29 32 32 33 35 33 27 24 28 30 29 29 29 28 28 30 30 31 31 30 29 28 26 23 19 15
16 17 17 18 19 20 21 22 24 25 27 30 31 31 29 29 30 33 36 39 41 41 41 40 38 37 35 33 32 30 28 29 30 27 24 24 26 25 25 25 25 26 29 31 31 31 32 30 30 33 33 31 31 31 29 28 28 28 28 30 30 28 27 26 26 26 26 25 24 25 25 24 21 21
15 16 17 17 18 20 22 25 26 27 29 31 31 29 28 28 29 31 34 37 38 39 39 39 38 36 35 33 32 29 26 26 29 28 25 23 25 26 25 24 23 22 23 26 27 27 29 31 31 31 31 28 27 26 26 26 27 28 28 28 27 25 24 23 23 22 20 19 18 18 17 15 17 19
Wind_Direction
348 346 346 342 336 333 331 325 320 316 312 312 316 317 315 309 299 292 287 283 283 274 248 238 253 257 249 244 242 240 242 244 241 238 239 239 239 236 230 227 225 223 221 219 217 215 214 209 203 202 202 202 203 205 204 204 204 204 206 208 205 198 198 202 200 196 192 190 188 185 184 182 177 177
347 345 345 344 341 339 337 333 329 325 320 318 319 321 321 317 309 299 289 276 278 280 262 245 251 260 259 251 243 241 243 244 240 235 234 238 239 237 232 229 226 224 222 220 218 216 214 212 206 204 204 204 205 207 208 209 207 204 204 206 205 199 199 204 201 197 193 190 191 189 186 183 178 179
347 345 344 343 341 340 338 337 334 331 328 325 324 326 326 323 320 317 309 288 274 273 266 256 252 258 267 261 249 245 244 242 239 236 231 233 237 237 235 232 228 225 224 222 220 217 214 213 210 207 206 206 207 208 209 211 209 205 203 206 207 200 199 204 203 199 193 189 192 194 190 186 182 183
349 346 344 343 342 340 339 338 337 336 334 332 330 330 330 328 330 330 324 313 301 291 278 266 260 263 269 263 253 249 248 244 241 239 235 234 236 235 235 235 231 226 224 223 222 218 214 213 212 211 208 207 208 208 209 211 210 208 205 206 208 203 199 203 206 201 192 189 195 198 193 190 188 188
350 347 345 344 343 342 340 339 339 339 339 338 335 334 333 330 331 334 329 321 316 313 303 283 269 265 262 258 255 251 246 242 240 240 238 235 234 231 231 233 232 229 225 223 222 219 216 213 212 213 211 209 209 209 209 211 211 209 208 208 209 206 201 202 206 202 192 190 197 202 199 193 189 191
350 348 346 345 345 344 343 341 341 341 341 340 337 335 335 331 330 332 330 323 317 317 315 306 290 273 255 250 253 250 245 243 240 239 239 236 232 230 227 228 231 230 227 224 223 220 216 214 213 214 214 211 210 210 210 211 212 212 212 211 211 209 202 201 205 203 195 193 199 205 205 197 191 193
350 349 347 345 345 345 344 343 343 342 341 340 337 335 334 331 328 328 328 325 318 312 311 312 307 290 265 251 250 249 247 248 242 236 237 237 233 230 226 223 227 230 228 224 223 221 217 215 214 214 214 213 211 211 211 211 212 213 214 214 213 210 203 201 205 204 196 194 200 206 208 201 195 196
351 349 348 346 345 345 344 343 343 342 341 339 336 334 333 331 328 327 326 322 317 310 306 306 307 302 286 266 256 250 246 247 244 237 236 236 234 233 231 226 225 228 229 226 223 221 218 216 215 214 214 214 212 212 212 212 212 213 214 215 215 212 207 204 205 203 196 195 201 206 208 204 200 200
352 351 348 345 346 346 344 343 342 341 340 339 335 332 331 329 326 324 323 320 315 308 302 301 303 304 299 283 266 253 244 242 243 241 239 236 234 234 234 232 228 227 229 228 224 221 219 216 216 215 214 214 213 212 212 212 212 212 213 216 216 214 211 207 205 201 197 198 202 205 206 204 203 204
351 352 350 347 347 347 344 342 340 340 339 337 334 332 330 328 326 322 319 317 315 309 301 299 300 300 301 294 276 260 247 240 239 240 240 239 235 232 232 232 230 227 230 231 227 221 218 216 215 215 215 214 213 213 212 212 212 211 212 215 216 216 214 211 206 201 199 201 203 205 205 205 205 206
352 352 351 350 349 348 346 343 340 339 338 335 332 330 329 327 324 321 317 315 313 308 303 300 298 297 297 294 286 272 254 240 237 237 237 238 234 230 229 229 227 228 231 234 233 226 219 216 215 215 215 214 213 213 213 212 212 212 212 214 216 215 215 213 209 204 201 202 204 206 207 207 205 205
354 352 350 348 347 346 344 341 339 338 336 333 329 327 326 324 321 318 315 312 309 305 302 299 297 297 294 291 292 283 260 237 233 233 232 234 233 228 226 226 226 226 226 231 234 228 219 215 214 214 213 214 214 213 212 212 212 212 212 213 214 215 215 215 212 208 204 203 204 206 209 210 206 204
355 352 348 344 342 341 339 338 336 334 332 331 326 322 320 318 316 313 311 308 306 303 299 296 295 295 292 288 289 285 266 242 236 234 229 231 233 228 224 225 228 226 222 224 228 225 218 215 213 212 211 212 213 212 211 211 212 212 212 212 213 214 215 216 214 210 207 206 205 205 209 212 208 204
354 351 348 344 341 340 339 337 334 330 329 328 324 321 318 313 308 306 304 302 301 299 296 294 294 292 289 286 283 282 276 264 252 240 229 228 231 226 220 221 226 225 220 217 218 219 216 213 211 210 209 210 210 210 210 211 211 212 212 212 212 213 214 216 215 212 209 209 207 206 208 212 210 206
354 351 349 347 344 343 341 338 334 331 328 327 325 324 322 316 309 301 295 295 296 295 292 290 289 286 286 286 282 278 279 276 264 248 236 232 227 220 214 216 220 218 215 213 212 214 213 210 208 207 208 207 207 208 210 211 211 212 212 211 212 212 212 214 216 213 211 210 209 207 208 211 212 209
354 352 350 349 346 344 343 341 338 334 329 325 324 325 324 321 314 303 294 289 288 288 288 287 286 282 282 283 282 278 275 277 273 259 246 237 227 219 216 216 216 211 206 207 212 213 212 210 206 204 205 206 208 209 210 211 211 212 212 211 211 212 212 213 214 214 211 210 211 210 209 210 213 211
356 355 352 350 347 345 344 344 342 338 333 328 324 322 321 318 314 308 301 294 288 285 282 281 280 279 279 278 276 276 276 277 277 268 254 241 232 226 222 220 220 210 200 201 206 209 210 209 206 204 206 207 209 211 211 210 212 212 212 211 211 212 212 212 213 214 212 211 211 212 211 211 212 212
358 357 353 351 347 345 345 345 343 341 336 331 326 323 319 316 313 311 308 303 298 292 283 278 278 278 277 275 273 275 274 272 273 271 264 252 238 232 231 227 221 215 207 201 199 203 207 204 202 206 208 207 208 211 211 210 211 212 212 211 211 211 212 211 212 213 212 211 211 211 211 210 210 211
360 358 356 353 349 347 345 343 344 344 340 333 329 325 322 319 315 312 310 307 304 299 290 282 279 277 275 272 272 272 270 267 268 267 267 266 255 243 237 229 218 216 213 204 197 202 207 200 200 206 207 205 207 210 211 211 211 211 211 211 211 210 211 211 211 212 212 210 210 209 209 208 208 209
360 358 357 355 352 349 345 344 347 348 344 337 331 329 326 323 319 314 313 311 307 301 294 287 282 279 276 273 270 268 267 264 264 264 267 271 265 249 232 217 209 208 208 204 201 204 205 201 203 206 205 205 206 207 209 211 211 210 210 210 210 210 209 210 210 211 211 210 208 207 205 205 206 207
0 358 357 356 354 350 346 347 350 351 348 340 334 332 329 327 324 320 319 318 313 308 303 297 292 287 282 277 272 269 267 263 261 261 264 266 261 245 223 210 205 199 200 202 201 202 203 200 202 205 205 205 205 204 207 209 210 210 210 208 209 209 208 208 209 209 209 208 206 204 202 203 204 205
0 357 357 356 355 352 350 351 353 353 351 344 337 335 332 329 327 326 325 323 319 317 313 306 301 296 289 283 277 271 268 263 256 251 248 249 249 238 218 214 205 196 201 202 199 201 206 199 197 199 198 201 206 204 204 206 206 206 207 207 208 207 207 207 207 207 207 206 204 201 200 201 201 200
0 358 357 356 355 354 354 354 355 355 353 348 340 338 336 331 328 328 327 324 322 321 318 313 309 304 297 289 277 268 268 264 253 245 240 239 241 236 218 210 205 196 205 204 198 197 200 193 190 190 182 183 208 204 202 204 203 201 202 204 205 206 206 206 205 205 205 202 200 200 199 199 197 194
1 0 359 355 355 356 356 355 355 355 355 352 345 343 340 333 331 331 329 326 327 324 319 316 315 312 308 300 279 261 260 259 250 243 238 233 233 235 225 210 206 205 207 203 200 198 195 188 187 189 189 188 192 193 196 200 199 197 197 199 200 202 202 202 203 202 201 199 199 199 198 196 194 189
3 2 359 353 354 357 357 356 356 356 357 355 350 347 345 340 339 339 334 332 334 331 327 324 320 318 320 319 302 273 257 249 244 242 239 233 230 232 230 219 211 212 215 208 202 198 192 185 184 186 191 192 169 168 182 192 194 193 194 194 195 196 195 194 195 195 194 195 196 195 194 193 192 189
5 1 356 352 356 359 358 358 358 358 358 358 354 352 350 349 350 348 343 343 342 336 333 333 328 327 332 334 328 310 274 249 240 238 239 236 233 233 234 231 223 217 219 215 204 199 196 188 182 179 180 178 161 158 163 173 185 189 188 187 188 187 186 185 185 185 185 185 188 189 188 188 189 190
1 356 354 355 359 1 1 0 0 0 0 359 357 356 355 355 356 352 350 352 348 338 337 340 337 336 340 342 342 336 323 297 254 236 236 237 236 238 239 238 236 229 225 220 208 202 200 191 184 184 181 170 155 154 156 155 171 178 177 177 178 178 178 179 177 176 176 176 176 179 179 178 179 182
360 357 358 0 2 2 2 3 3 3 3 2 360 359 359 359 357 356 356 355 349 343 345 346 343 341 341 343 347 346 342 347 317 239 243 237 234 238 238 236 237 233 229 227 214 204 201 195 190 190 186 176 164 160 160 154 158 164 163 163 166 169 172 175 172 169 168 169 169 169 169 168 170 170
7 5 5 6 5 4 4 4 3 3 3 4 3 2 1 1 359 358 358 356 351 348 348 346 345 345 345 345 352 359 7 24 55 86 100 190 216 230 232 227 228 224 222 224 213 204 202 201 193 188 185 182 176 166 157 150 152 158 156 151 152 159 164 167 165 161 159 161 163 165 167 166 166 168
11 10 10 9 6 5 5 4 3 2 4 6 7 5 4 2 1 0 359 356 353 350 348 348 350 352 351 352 359 13 25 33 46 64 76 89 108 138 160 152 156 191 199 205 203 199 200 203 196 186 181 179 176 168 160 151 147 154 156 149 144 148 155 157 157 155 154 154 157 162 165 165 165 167
8 6 7 8 7 7 7 7 6 6 6 6 5 4 4 3 3 3 2 1 359 356 353 355 358 358 358 0 7 18 25 29 37 52 62 68 74 88 102 94 79 87 124 162 184 191 195 199 193 185 176 167 161 161 160 154 148 148 152 149 145 146 149 150 149 149 150 149 149 153 157 158 159 161
5 1 4 7 8 9 9 9 7 6 5 4 3 3 4 4 4 5 6 6 5 2 0 2 3 2 2 6 12 18 23 26 33 43 52 58 63 71 78 75 70 74 87 105 131 154 169 172 168 167 163 152 145 146 146 145 145 146 145 144 142 141 143 144 143 142 144 144 142 143 147 151 154 158
5 2 6 8 8 8 8 7 5 3 2 2 2 3 4 5 5 5 6 6 4 4 4 4 4 3 4 9 13 16 19 25 31 38 45 51 56 61 67 67 65 68 75 82 97 112 122 128 131 134 132 127 130 137 136 130 133 139 139 137 133 131 135 139 137 136 138 138 135 134 138 144 150 155
8 6 9 10 8 7 6 6 3 360 358 357 359 2 4 5 5 5 6 6 5 6 7 6 6 7 8 10 12 14 17 22 28 36 44 50 54 57 62 64 61 64 73 80 89 99 107 112 113 111 111 108 104 111 123 127 127 129 132 132 129 126 129 132 132 132 134 134 131 129 129 136 144 150
12 11 10 8 7 5 4 4 0 358 357 356 356 360 3 5 6 6 6 6 6 7 8 8 9 11 11 11 12 15 20 23 28 35 42 46 51 54 56 57 56 61 70 76 85 96 103 107 107 102 99 100 94 87 96 117 127 127 124 123 123 123 124 127 128 130 132 132 132 129 126 129 137 144
14 13 10 6 6 4 2 1 359 357 357 357 357 358 360 3 7 9 9 9 9 10 11 11 12 12 12 13 15 17 22 27 29 33 36 40 46 51 52 53 54 57 60 62 70 88 101 107 109 106 96 90 92 79 71 97 125 129 123 117 118 121 123 125 126 127 128 129 130 130 129 131 137 144
13 13 10 8 7 4 2 1 359 358 358 358 359 2 3 5 9 13 15 16 15 14 14 14 16 16 15 15 17 19 23 28 31 33 35 38 44 49 51 52 53 55 56 56 61 74 86 97 106 111 112 104 100 86 71 83 103 119 123 121 118 119 123 123 120 119 122 125 127 130 132 134 138 146
13 12 10 9 8 5 3 2 359 358 359 358 359 2 4 6 9 14 17 18 17 16 18 18 18 19 20 19 19 20 23 27 31 34 35 38 42 47 51 54 56 58 60 60 61 69 78 82 89 102 112 111 104 104 95 87 84 94 114 122 120 119 121 120 115 113 118 121 123 126 131 135 140 147
13 11 9 8 8 6 4 3 1 0 0 359 359 1 360 1 6 11 14 15 17 19 22 22 21 22 23 23 24 25 26 27 28 30 34 37 40 44 47 51 56 60 63 63 62 65 71 73 75 86 95 95 97 103 103 97 91 91 103 115 119 120 121 119 117 117 119 122 124 125 128 132 138 143
10 10 8 7 7 6 5 4 3 3 2 1 3 6 4 3 6 9 11 14 17 20 22 23 24 25 26 25 28 30 30 29 29 31 35 38 41 44 47 51 56 60 62 62 61 63 66 70 79 91 95 97 102 105 103 99 96 96 100 107 116 121 123 123 123 122 122 125 127 126 125 128 133 138
7 8 8 7 6 6 6 5 4 5 5 3 5 10 11 10 11 12 14 17 19 19 20 21 24 27 28 28 30 31 32 32 32 34 36 38 41 46 49 52 54 56 58 59 60 63 67 75 87 96 100 101 103 103 100 94 88 89 94 101 110 117 121 123 124 123 123 126 126 122 121 125 128 132
6 6 6 5 5 6 6 6 5 5 6 6 8 11 12 13 14 16 17 18 20 20 19 20 22 26 29 31 33 34 35 34 34 35 36 38 40 44 47 49 50 52 55 56 58 64 72 80 88 94 97 99 99 95 89 83 86 90 94 100 106 112 118 121 123 122 124 127 126 123 122 122 122 125
6 6 5 4 5 6 6 7 8 7 8 11 13 13 12 11 13 15 16 17 18 19 19 20 22 26 29 33 36 38 38 38 38 38 38 39 41 42 45 50 53 55 58 60 61 67 73 78 85 90 91 92 95 95 92 92 94 96 99 102 106 110 116 122 126 128 129 132 133 134 137 138 138 144
5 5 4 4 6 7 8 9 11 12 12 15 16 16 14 12 13 15 17 17 19 20 20 22 24 26 28 32 36 39 40 41 43 44 41 42 45 46 48 51 54 57 61 64 65 69 73 77 85 91 89 87 90 94 96 98 99 101 105 109 111 113 116 120 124 128 131 134 137 142 146 149 151 156
3 5 7 7 8 10 13 14 15 14 15 17 17 17 17 17 17 17 18 19 21 22 22 23 25 26 27 29 32 35 38 40 44 47 46 45 46 48 49 51 53 54 59 64 66 69 73 77 83 87 87 85 87 91 95 99 102 104 107 110 112 114 119 122 124 124 124 127 134 144 149 152 154 156